Home   Weather   Corrientes   Past weeks

Flag for Argentina Past Weather in Corrientes, Corrientes, Argentina — Yesterday and Last 2 Weeks

64 °F

Mostly cloudy.

Feels Like: 64 °F
Forecast: 56 / 68 °F
Wind: 12 mph from Southwest

Location: Resistencia Aero.

Current Time: Oct 27, 2016 at 6:06:47 AM

Latest Report: Oct 27, 2016 at 5:00 AM

Visibility: N/A

Pressure: 29.98 "Hg

Humidity: 78%

Dew Point: 57 °F

Location of CorrientesLocation

Past Weather in Corrientes — Graph


Corrientes Temperature Yesterday

Maximum temperature yesterday: 77 °F (at 6:00 PM)
Minimum temperature yesterday: 64 °F (at 9:00 AM)
Average temperature yesterday: 69 °F

High & Low Weather Summary for the Past Weeks

High95 °F (Oct 16, 3:00 PM)100% (Oct 12, 6:00 PM)30.15 "Hg (Oct 12, 6:00 PM)
Low55 °F (Oct 22, 4:00 AM)39% (Oct 22, 2:00 PM)29.45 "Hg (Oct 16, 4:00 AM)
Average73 °F80%29.80 "Hg
* Reported Oct 12 5:00 AM — Oct 27 5:00 AM, Corrientes, Weather by CustomWeather, © 2016

Note: Actual official high and low records may vary slightly from our data, if they occured in-between our weather recording intervals... More about our weather records


Corrientes Weather History for the Previous 24 Hours

Scroll right to see more
Time TempWeatherWind HumidityBarometerVisibility
5:00 AM
Thu, Oct 27
64 °FMostly cloudy.12 mph78%29.98 "HgN/A
4:00 AM63 °FMostly cloudy.13 mph83%29.95 "HgN/A
3:00 AM64 °FMostly cloudy.13 mph78%29.95 "HgN/A
2:00 AM64 °FPassing clouds.10 mph78%29.95 "HgN/A
1:00 AM64 °FPartly cloudy.12 mph78%29.95 "HgN/A
12:00 AM63 °FPassing clouds.13 mph83%29.95 "HgN/A
11:00 PM
Wed, Oct 26
64 °FClear.15 mph78%29.95 "Hg10 mi
10:00 PM66 °FPassing clouds.12 mph73%29.92 "HgN/A
9:00 PM66 °FPassing clouds.8 mph73%29.89 "HgN/A
8:00 PM66 °FPassing clouds.7 mph78%29.89 "HgN/A
7:00 PM70 °FPassing clouds.14 mph69%29.86 "HgN/A
6:00 PM77 °FPassing clouds.14 mph89%29.86 "HgN/A
5:00 PM75 °FScattered clouds.16 mph54%29.86 "HgN/A
4:00 PM73 °FPartly sunny.15 mph57%29.86 "HgN/A
3:00 PM75 °FPartly sunny.15 mph54%29.86 "HgN/A
2:00 PM75 °FPartly sunny.15 mph61%29.86 "HgN/A
1:00 PM72 °FBroken clouds.13 mph78%29.89 "HgN/A
12:00 PM68 °FPartly sunny.13 mph88%29.92 "HgN/A
10:00 AM66 °FLight rain. Cloudy.9 mph94%29.92 "HgN/A
9:00 AM64 °FLight rain. Cloudy.9 mph100%29.92 "HgN/A
8:00 AM66 °FLight rain. Mostly cloudy.9 mph94%29.92 "HgN/A
7:00 AM66 °FLight rain. Cloudy.7 mph94%29.89 "HgN/A
6:00 AM66 °FLight rain. Mostly cloudy.8 mph94%29.86 "HgN/A
Weather by CustomWeather, © 2016

See weather overviewHow to use our weather pages